User: anonymous   Login
Location: Brno
(49.2000°N, 16.6330°E)
Time: 19:50:09
(UTC+01:00)
Language:

Cosmos 332 Rocket - Orbit

View from above orbital plane
View from above orbital plane
View from above satellite
View from above satellite

Ground track
Ground track

The orbit data is extracted from the following two-line orbital elements,

1 04370U 70028B   15086.94427190  .00000796  00000-0  17373-3 0  9993
2 04370 074.0408 198.0520 0016495 319.8815 040.1132 14.59479262893464
Epoch (UTC): 27 March 2015 22:39:45
Eccentricity: 0.0016495
inclination: 74.0408°
perigee height: 683 km
apogee height: 706 km
right ascension of ascending node: 198.0520°
argument of perigee: 319.8815°
revolutions per day: 14.59479262
mean anomaly at epoch: 40.1132°
orbit number at epoch: 89346

The dashed part of the orbit path shows where the satellite is in the earth's shadow,  

DLR